• în România
  • Lista ţărilor
  • Pe 7 zile
  • Temperatura apei
  • Hartă satelitară
  • Meteo pe hartă
  • Widget-uri
  • user-avatar
    Intrare

    Meteo pe oră la Elbasan

    Astăzi, 28 Mai, Duminică

    Timp Temperatura Precipitaţii Vânt Presiune Umiditate
    00:00 +13°C° 0 mm 2 m/s 735 mmHg 84%
    01:00 +13°C° 0 mm 2 m/s 735 mmHg 83%
    02:00 +13°C° 0 mm 2 m/s 735 mmHg 83%
    03:00 +12°C° 0 mm 2 m/s 735 mmHg 84%
    04:00 +12°C° 0 mm 2 m/s 735 mmHg 84%
    05:00 +14°C° 0 mm 2 m/s 736 mmHg 78%
    06:00 +16°C° 0 mm 3 m/s 736 mmHg 72%
    07:00 +18°C° 0 mm 3 m/s 736 mmHg 64%
    08:00 +20°C° 0 mm 3 m/s 736 mmHg 57%
    09:00 +21°C° 0 mm 3 m/s 737 mmHg 51%
    10:00 +24°C° 0 mm 3 m/s 737 mmHg 45%
    11:00 +23°C° 0,1 mm 4 m/s 737 mmHg 44%
    12:00 +25°C° 0,1 mm 4 m/s 737 mmHg 44%
    13:00 +25°C° 0,1 mm 4 m/s 737 mmHg 43%
    14:00 +25°C° 0,2 mm 4 m/s 737 mmHg 46%
    15:00 +25°C° 0,2 mm 4 m/s 737 mmHg 48%
    16:00 +23°C° 0,2 mm 4 m/s 737 mmHg 51%
    17:00 +21°C° 0,1 mm 3 m/s 737 mmHg 59%
    18:00 +19°C° 0,1 mm 3 m/s 737 mmHg 68%
    19:00 +17°C° 0,1 mm 3 m/s 737 mmHg 76%
    20:00 +16°C° 0 mm 2 m/s 737 mmHg 78%
    21:00 +16°C° 0 mm 2 m/s 737 mmHg 79%
    22:00 +15°C° 0 mm 2 m/s 738 mmHg 81%
    23:00 +15°C° 0 mm 2 m/s 737 mmHg 81%

    Mâine, 29 Mai, Luni

    Timp Temperatura Precipitaţii Vânt Presiune Umiditate
    00:00 +14°C° 0 mm 2 m/s 737 mmHg 82%
    01:00 +14°C° 0 mm 2 m/s 737 mmHg 82%
    02:00 +14°C° 0 mm 2 m/s 737 mmHg 82%
    03:00 +13°C° 0 mm 2 m/s 737 mmHg 83%
    04:00 +13°C° 0 mm 2 m/s 737 mmHg 83%
    05:00 +15°C° 0 mm 2 m/s 737 mmHg 77%
    06:00 +17°C° 0 mm 2 m/s 737 mmHg 71%
    07:00 +19°C° 0 mm 2 m/s 737 mmHg 65%
    08:00 +22°C° 0 mm 1 m/s 737 mmHg 58%
    09:00 +24°C° 0 mm 1 m/s 737 mmHg 51%
    10:00 +26°C° 0 mm 1 m/s 737 mmHg 45%
    11:00 +26°C° 0,1 mm 1 m/s 737 mmHg 45%
    12:00 +26°C° 0,1 mm 2 m/s 737 mmHg 45%
    13:00 +27°C° 0,1 mm 3 m/s 736 mmHg 45%
    14:00 +26°C° 0,3 mm 2 m/s 736 mmHg 49%
    15:00 +25°C° 0,3 mm 2 m/s 736 mmHg 52%
    16:00 +25°C° 0,3 mm 2 m/s 736 mmHg 55%
    17:00 +21°C° 0,2 mm 2 m/s 735 mmHg 65%
    18:00 +20°C° 0,2 mm 1 m/s 735 mmHg 74%
    19:00 +16°C° 0,2 mm 1 m/s 735 mmHg 83%
    20:00 +15°C° 0,1 mm 1 m/s 735 mmHg 84%
    21:00 +14°C° 0,1 mm 0 m/s 735 mmHg 85%
    22:00 +13°C° 0,1 mm 0 m/s 736 mmHg 86%
    23:00 +13°C° 0 mm 0 m/s 735 mmHg 87%

    Poimâine, 30 Mai, Marţi

    Timp Temperatura Precipitaţii Vânt Presiune Umiditate
    00:00 +13°C° 0 mm 0 m/s 735 mmHg 87%
    01:00 +12°C° 0 mm 0 m/s 735 mmHg 87%
    02:00 +12°C° 0 mm 0 m/s 735 mmHg 88%
    03:00 +12°C° 0 mm 0 m/s 735 mmHg 88%
    04:00 +11°C° 0 mm 0 m/s 735 mmHg 89%
    05:00 +14°C° 0 mm 0 m/s 735 mmHg 80%
    06:00 +17°C° 0 mm 0 m/s 736 mmHg 72%
    07:00 +20°C° 0 mm 0 m/s 736 mmHg 64%
    08:00 +23°C° 0 mm 1 m/s 736 mmHg 58%
    09:00 +25°C° 0 mm 1 m/s 736 mmHg 53%
    10:00 +26°C° 0 mm 1 m/s 736 mmHg 48%
    11:00 +26°C° 0,1 mm 2 m/s 736 mmHg 47%
    12:00 +27°C° 0,1 mm 2 m/s 736 mmHg 45%
    13:00 +27°C° 0,1 mm 3 m/s 736 mmHg 44%
    14:00 +27°C° 0,2 mm 3 m/s 736 mmHg 47%
    15:00 +26°C° 0,2 mm 3 m/s 736 mmHg 49%
    16:00 +25°C° 0,2 mm 3 m/s 736 mmHg 52%
    17:00 +23°C° 0,1 mm 2 m/s 736 mmHg 61%
    18:00 +20°C° 0,1 mm 1 m/s 736 mmHg 71%
    19:00 +18°C° 0,1 mm 1 m/s 736 mmHg 81%
    20:00 +16°C° 0 mm 1 m/s 736 mmHg 82%
    21:00 +15°C° 0 mm 1 m/s 736 mmHg 82%
    22:00 +14°C° 0 mm 1 m/s 737 mmHg 83%
    23:00 +14°C° 0 mm 1 m/s 737 mmHg 83%

    31 Mai, Miercuri

    Timp Temperatura Precipitaţii Vânt Presiune Umiditate
    00:00 +14°C° 0 mm 1 m/s 736 mmHg 83%
    01:00 +13°C° 0 mm 1 m/s 736 mmHg 82%
    02:00 +13°C° 0 mm 1 m/s 736 mmHg 83%
    03:00 +13°C° 0 mm 1 m/s 736 mmHg 83%
    04:00 +13°C° 0 mm 1 m/s 736 mmHg 83%
    05:00 +15°C° 0 mm 1 m/s 737 mmHg 74%
    06:00 +19°C° 0 mm 1 m/s 737 mmHg 64%
    07:00 +22°C° 0 mm 1 m/s 737 mmHg 55%
    08:00 +24°C° 0 mm 1 m/s 737 mmHg 50%
    09:00 +25°C° 0 mm 1 m/s 738 mmHg 45%
    10:00 +27°C° 0 mm 2 m/s 738 mmHg 40%
    11:00 +27°C° 0 mm 2 m/s 737 mmHg 39%
    12:00 +28°C° 0 mm 3 m/s 737 mmHg 38%
    13:00 +28°C° 0 mm 3 m/s 737 mmHg 37%
    14:00 +28°C° 0 mm 3 m/s 737 mmHg 40%
    15:00 +27°C° 0 mm 3 m/s 736 mmHg 43%
    16:00 +26°C° 0 mm 3 m/s 736 mmHg 45%
    17:00 +24°C° 0 mm 2 m/s 736 mmHg 57%
    18:00 +21°C° 0 mm 1 m/s 736 mmHg 69%
    19:00 +18°C° 0 mm 1 m/s 736 mmHg 81%
    20:00 +16°C° 0 mm 1 m/s 736 mmHg 83%
    21:00 +14°C° 0 mm 0 m/s 736 mmHg 85%
    22:00 +13°C° 0 mm 0 m/s 736 mmHg 87%
    23:00 +13°C° 0 mm 0 m/s 736 mmHg 86%

    1 Iunie, Joi

    Timp Temperatura Precipitaţii Vânt Presiune Umiditate
    00:00 +13°C° 0 mm 0 m/s 736 mmHg 86%
    01:00 +13°C° 0 mm 0 m/s 736 mmHg 86%
    02:00 +12°C° 0 mm 0 m/s 736 mmHg 86%
    03:00 +12°C° 0 mm 0 m/s 736 mmHg 85%
    04:00 +13°C° 0 mm 1 m/s 735 mmHg 85%
    05:00 +16°C° 0 mm 1 m/s 736 mmHg 74%
    06:00 +20°C° 0 mm 1 m/s 736 mmHg 62%
    07:00 +23°C° 0 mm 1 m/s 736 mmHg 51%
    08:00 +24°C° 0 mm 1 m/s 736 mmHg 47%
    09:00 +26°C° 0 mm 1 m/s 736 mmHg 43%
    10:00 +28°C° 0 mm 2 m/s 736 mmHg 39%
    11:00 +28°C° 0 mm 2 m/s 736 mmHg 38%
    12:00 +29°C° 0 mm 3 m/s 736 mmHg 37%
    13:00 +29°C° 0 mm 3 m/s 735 mmHg 37%
    14:00 +28°C° 0 mm 3 m/s 735 mmHg 39%
    15:00 +28°C° 0 mm 3 m/s 735 mmHg 41%
    16:00 +27°C° 0 mm 3 m/s 735 mmHg 43%
    17:00 +24°C° 0 mm 2 m/s 735 mmHg 55%
    18:00 +20°C° 0 mm 2 m/s 735 mmHg 67%
    19:00 +18°C° 0 mm 1 m/s 735 mmHg 79%
    20:00 +18°C° 0 mm 1 m/s 735 mmHg 81%
    21:00 +16°C° 0 mm 1 m/s 735 mmHg 82%
    22:00 +14°C° 0 mm 0 m/s 735 mmHg 84%
    23:00 +14°C° 0 mm 0 m/s 735 mmHg 82%

    2 Iunie, Vineri

    Timp Temperatura Precipitaţii Vânt Presiune Umiditate
    00:00 +14°C° 0 mm 0 m/s 735 mmHg 80%
    01:00 +14°C° 0 mm 0 m/s 735 mmHg 79%
    02:00 +13°C° 0 mm 0 m/s 734 mmHg 80%
    03:00 +13°C° 0 mm 0 m/s 734 mmHg 81%
    04:00 +12°C° 0 mm 0 m/s 734 mmHg 83%
    05:00 +15°C° 0 mm 0 m/s 734 mmHg 72%
    06:00 +18°C° 0 mm 0 m/s 735 mmHg 62%
    07:00 +22°C° 0 mm 0 m/s 735 mmHg 51%
    08:00 +25°C° 0 mm 1 m/s 735 mmHg 47%
    09:00 +27°C° 0 mm 1 m/s 735 mmHg 42%
    10:00 +28°C° 0 mm 2 m/s 735 mmHg 38%
    11:00 +29°C° 0 mm 2 m/s 735 mmHg 37%
    12:00 +29°C° 0 mm 3 m/s 734 mmHg 36%
    13:00 +29°C° 0 mm 3 m/s 734 mmHg 36%
    14:00 +29°C° 0 mm 3 m/s 734 mmHg 39%
    15:00 +28°C° 0 mm 3 m/s 734 mmHg 43%
    16:00 +27°C° 0 mm 3 m/s 734 mmHg 47%
    17:00 +24°C° 0 mm 3 m/s 734 mmHg 59%
    18:00 +21°C° 0 mm 2 m/s 734 mmHg 71%
    19:00 +19°C° 0 mm 1 m/s 734 mmHg 82%
    20:00 +18°C° 0 mm 1 m/s 734 mmHg 84%
    21:00 +16°C° 0 mm 1 m/s 734 mmHg 86%
    22:00 +14°C° 0 mm 0 m/s 734 mmHg 87%
    23:00 +14°C° 0 mm 0 m/s 734 mmHg 87%
    Arată mai mult